Wind_Speed
18 21 24 25 26 27 29 30 32 33 37 38 38 37 36 37 38 41 45 44 45 45 45 46 47 47 46 45 46 46 47 46 43 43 47 47 44 45 48 52 49 50 52
20 23 29 29 28 28 30 35 40 42 40 38 39 42 41 45 42 44 44 47 51 54 54 53 54 54 54 55 54 53 54 52 52 49 46 48 50 49 50 50 52 54 53
23 24 29 29 30 28 29 35 38 37 39 40 42 46 47 47 45 51 44 47 53 55 56 58 60 61 64 62 62 61 58 57 56 56 55 51 51 53 50 51 53 55 57
26 26 27 30 33 40 40 39 38 38 38 43 47 48 48 52 52 47 50 52 54 54 64 66 62 65 65 65 67 66 62 64 62 60 59 59 56 55 55 56 57 55 53
28 28 28 33 38 39 37 38 42 43 44 45 48 52 55 59 58 57 61 62 71 67 65 64 67 65 67 69 68 70 69 66 66 67 63 61 63 60 58 59 60 59 59
32 34 35 40 40 37 43 46 42 45 46 49 53 53 54 56 65 66 67 69 74 74 82 76 67 69 69 72 74 73 76 75 73 67 65 65 65 65 64 64 62 64 63
37 38 34 40 39 41 42 43 48 52 57 62 62 61 65 63 68 72 76 78 88 90 92 87 76 73 77 78 77 79 82 80 78 78 71 68 67 67 68 69 67 65 67
38 36 38 42 45 48 50 53 56 59 63 65 71 73 72 72 73 80 84 93 93 100 97 91 83 81 77 82 83 82 84 86 85 81 79 73 74 71 70 71 71 69 67
38 39 43 44 51 58 61 61 62 61 69 72 80 80 80 82 82 88 91 99 102 104 97 91 88 89 90 93 94 97 97 96 87 85 93 81 58 72 77 72 73 71 65
38 44 51 53 59 66 66 68 71 72 76 83 86 89 92 91 95 94 100 106 107 108 102 98 95 98 104 106 104 105 107 102 99 92 86 82 58 52 71 80 74 72 60
44 51 57 60 65 71 73 75 73 77 81 89 89 94 101 102 110 112 111 116 117 113 103 101 104 108 113 117 114 112 111 109 105 101 96 91 84 70 82 80 77 78 66
52 57 62 66 72 75 80 82 82 88 88 98 98 103 106 111 114 120 127 122 122 112 110 107 110 114 115 120 119 115 112 114 112 110 105 101 92 97 76 76 76 87 80
56 63 64 71 76 81 83 84 87 90 96 99 107 109 114 120 132 130 135 127 120 111 110 111 112 112 110 112 112 114 114 114 119 116 114 110 109 104 82 83 90 76 70
58 63 67 77 79 85 85 88 92 96 100 106 109 115 120 129 138 134 131 126 117 108 101 102 100 98 96 96 95 94 98 101 106 120 120 116 113 109 103 105 101 91 81
64 65 74 81 83 82 86 90 96 99 105 113 112 125 130 145 136 134 127 120 110 99 93 93 90 88 84 85 85 82 83 88 94 102 116 119 115 113 107 112 113 108 99
63 73 81 90 90 90 95 96 104 110 112 118 124 133 146 140 135 130 120 110 104 100 89 85 78 78 77 74 72 72 70 70 77 87 98 102 106 95 107 99 108 102 105
73 82 83 83 90 94 99 105 111 113 118 124 135 149 144 134 133 124 112 106 98 90 82 76 68 66 68 65 64 61 64 66 69 76 84 95 99 105 92 90 100 96 100
77 79 83 87 96 99 102 109 117 117 123 137 145 144 137 131 125 113 107 97 87 79 73 64 65 60 59 57 55 54 59 62 64 66 78 84 89 89 97 111 101 93 96
83 86 87 92 100 103 109 114 119 119 128 141 147 142 136 127 113 105 96 86 80 73 65 60 57 54 52 49 46 48 54 58 60 65 71 84 86 96 93 93 92 103 98
88 86 89 95 103 106 112 119 115 126 138 148 148 140 129 115 105 95 87 80 74 70 63 56 50 48 47 45 40 45 52 58 59 63 70 80 91 102 99 90 84 93 99
89 90 93 97 108 112 116 115 124 136 143 151 140 134 120 107 98 89 81 75 70 66 60 53 45 44 44 42 38 42 48 56 62 65 69 76 84 95 100 103 98 98 105
95 96 98 103 113 115 121 121 132 139 151 146 139 126 111 102 95 86 78 71 64 59 57 51 45 43 41 42 38 40 46 50 57 62 67 73 81 92 107 112 112 108 111
100 100 99 107 117 118 120 132 138 146 159 141 130 116 104 97 89 82 75 71 63 54 48 47 46 42 38 39 40 39 43 48 55 59 65 70 79 88 106 113 117 115 117
102 102 104 110 117 122 128 136 142 154 141 129 118 106 99 89 81 74 68 68 63 53 45 42 43 43 35 34 36 37 41 46 52 57 58 69 75 86 97 104 113 121 122
106 106 108 119 122 123 133 142 148 157 132 118 106 98 92 82 75 68 63 61 58 51 45 40 40 37 33 31 32 35 37 44 51 56 59 65 73 79 82 88 99 109 120
111 114 117 122 122 131 141 147 152 143 124 109 99 92 88 79 70 65 61 56 52 48 44 39 37 34 32 29 28 32 33 37 42 47 50 55 64 70 77 84 87 96 106
Wind_Direction
288 296 303 301 303 306 303 309 316 317 322 322 318 319 315 309 306 305 303 300 299 297 294 291 291 286 289 290 288 286 283 280 273 271 268 265 266 267 263 258 260 263 263
296 295 293 295 302 300 294 299 310 319 317 317 314 318 322 320 310 307 303 301 298 298 295 292 291 289 284 280 284 282 281 279 278 273 269 267 262 262 263 263 258 258 261
305 305 294 287 297 304 308 309 312 316 317 317 313 316 316 314 315 310 310 313 306 298 298 295 288 287 287 284 281 280 279 279 275 274 272 269 264 260 258 260 262 261 262
307 304 293 299 299 308 309 311 315 314 311 313 309 312 311 311 315 303 310 310 310 304 305 301 295 284 279 280 279 277 276 276 274 272 271 270 267 262 259 259 261 263 266
303 308 308 302 302 304 304 311 311 307 307 312 316 315 307 305 313 309 309 307 313 304 306 298 291 288 281 276 275 272 273 273 273 271 268 267 265 263 264 262 259 260 262
311 310 311 313 312 312 311 312 310 311 308 304 312 315 312 309 319 313 313 311 309 306 308 302 291 284 279 275 272 271 271 272 270 268 268 265 263 262 262 264 264 259 259
303 301 311 316 313 313 317 317 310 308 310 312 314 312 310 308 309 311 313 308 308 306 304 300 287 282 281 277 270 269 268 267 269 267 267 263 262 261 262 261 261 261 257
297 299 305 310 315 316 313 307 307 304 308 312 313 316 310 310 307 309 309 309 306 308 300 296 288 282 277 272 270 265 264 264 265 265 273 263 261 259 258 258 260 261 260
299 298 302 305 307 310 306 313 316 310 315 313 316 314 313 311 310 308 307 311 306 306 298 289 285 281 278 275 271 272 269 268 258 255 249 258 259 263 253 252 254 255 260
303 299 298 297 302 308 309 306 303 306 310 314 316 316 315 310 308 305 310 307 305 303 296 286 280 276 274 272 269 268 267 262 260 255 251 248 246 262 263 247 245 246 250
298 297 296 297 301 304 307 309 308 310 311 314 313 313 314 310 310 310 310 308 306 299 291 281 278 275 273 269 264 261 258 255 254 253 249 251 235 233 248 254 248 243 235
296 295 297 299 305 306 312 312 309 308 308 311 313 314 313 312 311 310 309 306 306 295 291 282 274 270 267 265 263 259 256 251 248 247 246 244 248 236 249 243 250 245 240
293 291 298 302 305 307 308 311 313 311 310 309 312 313 311 315 315 311 308 305 301 295 289 284 279 276 273 270 267 263 258 253 248 244 242 241 239 239 226 231 237 237 239
296 297 297 305 305 308 312 316 313 313 314 315 314 316 316 316 316 311 309 306 302 299 293 288 285 281 277 273 268 264 259 256 252 245 243 241 241 238 234 232 236 234 232
295 297 302 306 311 314 314 314 314 313 315 319 317 318 318 317 314 311 309 307 304 301 296 292 288 283 277 272 269 265 259 254 250 246 241 241 242 244 239 239 240 241 231
292 295 301 308 308 314 315 317 314 316 317 315 317 319 317 317 314 312 310 307 304 302 299 293 286 281 277 272 267 262 257 249 243 240 238 237 237 233 245 242 241 241 233
295 296 305 310 312 317 317 317 317 316 317 319 319 318 319 317 316 312 310 308 305 301 298 294 287 281 276 271 266 259 253 246 240 234 232 232 230 233 236 235 239 238 236
304 304 312 315 317 317 316 317 319 317 319 320 319 321 318 317 315 313 312 308 303 301 298 296 290 284 277 272 264 255 249 242 236 232 225 226 225 226 224 229 235 237 233
310 308 313 318 319 317 317 318 318 318 319 320 321 321 318 317 316 315 312 308 305 303 303 299 292 286 280 271 261 250 244 239 231 226 220 219 218 217 223 224 225 229 231
311 312 316 318 317 317 317 318 320 321 322 322 322 319 318 317 317 315 314 311 308 307 305 300 293 288 282 271 259 246 239 237 231 226 223 217 215 214 218 222 221 226 230
311 316 316 316 316 319 320 321 322 323 324 323 321 319 318 318 317 317 314 312 310 307 304 300 294 288 281 273 261 248 239 235 231 226 224 222 219 216 215 212 210 219 222
310 311 315 315 317 318 320 322 322 324 323 323 320 319 319 318 317 317 315 312 309 307 303 302 297 287 281 273 264 250 242 235 233 228 224 223 220 217 212 214 212 215 218
309 313 315 315 317 317 320 322 324 324 323 321 319 319 319 317 317 318 316 313 312 308 304 302 296 287 279 272 265 255 245 238 233 230 226 224 222 220 217 218 219 220 223
312 316 315 316 317 322 320 324 324 324 324 321 319 319 318 317 316 316 315 313 312 309 307 302 293 291 285 273 265 258 244 238 235 233 225 224 223 223 224 224 223 223 226
314 314 315 316 318 319 322 321 323 325 322 320 321 320 318 318 317 316 316 314 309 309 308 302 292 288 280 268 262 256 247 238 238 237 233 223 225 226 230 229 228 229 226
313 314 314 313 317 320 322 321 322 323 320 320 320 319 318 318 319 318 318 315 309 309 307 300 291 285 277 269 256 250 245 240 240 241 241 238 231 229 227 229 230 231 232
Height
10776 10775 10773 10771 10769 10767 10766 10763 10761 10759 10755 10753 10749 10747 10744 10740 10736 10732 10729 10724 10721 10718 10716 10715 10712 10709 10707 10703 10701 10700 10699 10698 10697 10697 10698 10698 10698 10699 10699 10700 10702 10703 10703
10769 10768 10767 10766 10763 10761 10759 10757 10754 10750 10747 10744 10740 10738 10735 10732 10728 10724 10721 10716 10711 10707 10703 10701 10699 10696 10695 10693 10689 10687 10685 10685 10685 10684 10684 10685 10686 10686 10688 10688 10690 10691 10692
10762 10761 10760 10758 10756 10755 10753 10750 10746 10742 10739 10736 10732 10729 10726 10722 10718 10714 10710 10707 10702 10697 10692 10688 10684 10681 10678 10677 10676 10674 10672 10670 10670 10671 10671 10671 10671 10673 10674 10676 10677 10679 10680
10756 10754 10751 10750 10749 10747 10744 10742 10738 10735 10732 10729 10725 10721 10716 10711 10707 10703 10700 10696 10691 10685 10681 10674 10669 10665 10662 10659 10658 10657 10656 10655 10654 10654 10656 10657 10657 10657 10659 10661 10663 10666 10667
10749 10747 10745 10743 10741 10739 10736 10733 10730 10726 10722 10719 10715 10710 10705 10700 10694 10689 10684 10679 10675 10670 10664 10658 10653 10648 10642 10640 10637 10636 10636 10637 10637 10638 10638 10640 10641 10643 10645 10646 10648 10651 10654
10741 10739 10737 10735 10732 10729 10726 10723 10719 10715 10712 10709 10703 10698 10692 10686 10681 10674 10667 10660 10655 10648 10643 10640 10632 10626 10623 10619 10617 10614 10614 10616 10617 10619 10621 10623 10623 10626 10628 10630 10632 10635 10638
10733 10731 10729 10726 10723 10720 10716 10712 10708 10703 10697 10694 10690 10685 10679 10670 10663 10657 10650 10644 10636 10626 10619 10612 10609 10605 10600 10596 10595 10593 10590 10591 10594 10598 10600 10604 10604 10606 10610 10613 10615 10619 10622
10723 10720 10718 10715 10712 10708 10704 10701 10696 10691 10684 10679 10674 10667 10663 10655 10645 10636 10629 10622 10615 10603 10593 10585 10579 10575 10572 10569 10567 10567 10566 10567 10570 10576 10580 10582 10586 10588 10589 10592 10597 10601 10605
10713 10711 10708 10705 10701 10698 10693 10687 10681 10675 10668 10659 10650 10643 10638 10634 10628 10619 10606 10596 10583 10573 10565 10558 10550 10543 10539 10537 10537 10536 10539 10539 10543 10549 10556 10559 10566 10568 10569 10570 10577 10583 10588
10704 10700 10697 10693 10689 10682 10676 10669 10663 10655 10648 10640 10630 10617 10607 10599 10595 10598 10581 10571 10563 10545 10528 10519 10513 10508 10503 10500 10498 10500 10501 10506 10509 10519 10523 10533 10542 10545 10545 10551 10555 10563 10573
10693 10690 10686 10681 10675 10668 10661 10653 10644 10635 10626 10617 10608 10597 10585 10574 10558 10544 10549 10533 10520 10507 10499 10486 10472 10461 10458 10455 10453 10454 10457 10464 10472 10481 10491 10498 10511 10519 10522 10529 10536 10543 10553
10684 10679 10673 10667 10660 10651 10643 10633 10624 10614 10604 10593 10580 10567 10555 10543 10528 10509 10496 10493 10475 10462 10445 10434 10424 10414 10405 10401 10401 10405 10409 10419 10431 10441 10453 10466 10480 10491 10505 10510 10514 10517 10527
10672 10665 10658 10650 10642 10634 10625 10615 10604 10593 10582 10568 10553 10537 10523 10506 10486 10468 10449 10435 10423 10418 10395 10378 10364 10359 10356 10349 10351 10356 10364 10373 10384 10399 10412 10428 10446 10455 10476 10478 10482 10493 10504
10657 10649 10641 10634 10626 10617 10607 10596 10583 10568 10555 10538 10523 10507 10490 10467 10449 10426 10401 10380 10366 10354 10345 10328 10316 10310 10305 10302 10304 10312 10322 10332 10344 10357 10373 10389 10403 10421 10436 10444 10457 10466 10479
10641 10633 10627 10619 10610 10598 10587 10574 10561 10545 10528 10510 10492 10475 10452 10434 10408 10382 10359 10336 10318 10307 10300 10287 10278 10267 10264 10263 10263 10272 10284 10293 10303 10316 10338 10350 10371 10385 10402 10414 10424 10440 10453
10626 10618 10609 10600 10591 10578 10565 10551 10536 10518 10501 10481 10464 10444 10420 10395 10369 10342 10320 10299 10283 10264 10261 10249 10245 10233 10228 10229 10234 10239 10247 10256 10265 10277 10294 10321 10344 10355 10365 10382 10393 10408 10426
10610 10601 10593 10581 10570 10555 10541 10527 10509 10491 10476 10454 10430 10408 10382 10354 10329 10306 10285 10266 10253 10236 10229 10221 10214 10207 10201 10203 10206 10213 10216 10224 10235 10246 10263 10280 10305 10325 10343 10350 10360 10378 10394
10591 10583 10573 10560 10548 10535 10521 10505 10486 10468 10446 10425 10402 10374 10346 10320 10296 10274 10255 10238 10225 10212 10204 10198 10184 10183 10179 10179 10183 10189 10192 10198 10209 10221 10234 10254 10273 10294 10307 10319 10340 10351 10370
10573 10564 10551 10538 10527 10514 10500 10481 10463 10439 10417 10394 10368 10342 10316 10292 10268 10248 10230 10214 10199 10188 10179 10174 10167 10162 10160 10160 10163 10167 10172 10178 10186 10196 10210 10226 10245 10263 10282 10298 10318 10329 10345
10552 10542 10529 10517 10507 10493 10476 10459 10437 10415 10391 10365 10337 10311 10285 10262 10244 10226 10207 10191 10179 10166 10157 10153 10149 10144 10142 10142 10147 10150 10153 10158 10169 10178 10190 10201 10218 10237 10255 10274 10295 10311 10323
10532 10520 10508 10495 10483 10467 10451 10432 10413 10389 10364 10337 10308 10282 10259 10236 10218 10203 10190 10174 10161 10150 10142 10135 10133 10129 10126 10127 10131 10134 10136 10143 10150 10160 10170 10182 10200 10221 10236 10245 10263 10278 10293
10512 10500 10488 10473 10457 10442 10426 10406 10389 10366 10342 10313 10285 10259 10236 10213 10196 10182 10169 10157 10147 10138 10127 10121 10116 10114 10112 10111 10115 10119 10120 10128 10135 10144 10152 10164 10178 10193 10207 10219 10236 10249 10263
10491 10477 10464 10450 10435 10418 10399 10382 10360 10340 10314 10286 10260 10238 10217 10196 10177 10164 10151 10136 10127 10122 10117 10107 10099 10097 10098 10099 10099 10105 10108 10113 10119 10127 10136 10148 10160 10172 10185 10197 10213 10225 10237
10467 10453 10439 10427 10411 10392 10376 10353 10336 10312 10286 10258 10236 10215 10197 10182 10163 10152 10139 10123 10112 10106 10101 10095 10088 10084 10086 10085 10086 10090 10094 10098 10104 10111 10123 10131 10143 10152 10162 10176 10190 10204 10216
10446 10432 10418 10404 10388 10370 10348 10330 10309 10287 10261 10235 10213 10193 10177 10164 10150 10137 10125 10113 10100 10092 10086 10082 10075 10073 10072 10072 10074 10076 10081 10085 10090 10096 10105 10116 10125 10137 10147 10160 10174 10185 10195
10423 10410 10394 10380 10363 10344 10327 10307 10286 10261 10241 10218 10197 10176 10159 10146 10134 10121 10110 10101 10089 10080 10074 10070 10064 10062 10061 10062 10063 10064 10069 10074 10079 10085 10093 10103 10112 10122 10131 10141 10153 10164 10175